Change the Weather History Date:

Friday, March 15, 2013

  Actual Average Record
Temperature  
Mean Temperature 52 °F 48 °F  
Max Temperature 74 °F 59 °F 80 °F (1995)
Min Temperature 30 °F 38 °F 20 °F (1969)
Degree Days  
Heating Degree Days 13 17  
Month to date heating degree days 359 289  
Since 1 July heating degree days 3470 3585  
Cooling Degree Days 0 0  
Month to date cooling degree days 0 0  
Year to date cooling degree days 0 0  
Growing Degree Days 2 (Base 50)    
Moisture  
Dew Point 40 °F    
Average Humidity 62    
Maximum Humidity 85    
Minimum Humidity 38    
Precipitation  
Precipitation 0.00 in 0.13 in 0.73 in (1972)
Month to date precipitation 0.66 1.80  
Year to date precipitation 12.41 9.39  
Snow  
Snow 0.00 in 0.10 in 2.00 in (1978)
Month to date snowfall 0.6 0.5  
Since 1 July snowfall 6.7 9.0  
Snow Depth 0.00 in    
Sea Level Pressure  
Sea Level Pressure 29.94 in    
Wind  
Wind Speed 8 mph (SW)    
Max Wind Speed 23 mph    
Max Gust Speed 32 mph    
Visibility 10 miles    
Events      
T = Trace of Precipitation, MM = Missing Value Source: NWS Daily Summary

Daily Weather History Graph

Daily Weather History Graph

Search for Another Location

Airport or City:

Trip Planner

Search our weather history database for the weather conditions in past years. The results will help you decide how hot, cold, wet, or windy it might be!

Date:

Astronomy

Mar. 15, 2013 Rise Set
Actual Time 7:05 AM CDT 7:02 PM CDT
Civil Twilight 6:39 AM CDT 7:28 PM CDT
Nautical Twilight 6:09 AM CDT 7:58 PM CDT
Astronomical Twilight 5:39 AM CDT 8:29 PM CDT
Moon 9:02 AM CDT (3/15) 11:09 PM CDT (3/15)
Length of Visible Light 12h 48m
Length of Day
11h 56m
Waxing Crescent, 15% of the Moon is Illuminated
Mar 15
Waxing Crescent
Mar 19
First Quarter
Mar 27
Full
Apr 2
Last Quarter
Apr 10
New

Hourly Weather History & Observations

Time (CDT) Temp. Windchill Dew Point Humidity Pressure Visibility Wind Dir Wind Speed Gust Speed Precip Events Conditions
12:53 AM 33.1 °F 30.0 °F 27.0 °F 78% 30.12 in 10.0 mi East 3.5 mph - N/A   Clear
1:53 AM 33.1 °F - 28.0 °F 82% 30.11 in 10.0 mi Calm Calm - N/A   Clear
2:53 AM 30.9 °F - 27.0 °F 85% 30.08 in 10.0 mi Calm Calm - N/A   Clear
3:53 AM 30.9 °F - 27.0 °F 85% 30.06 in 10.0 mi Calm Calm - N/A   Clear
4:53 AM 30.9 °F - 26.1 °F 82% 30.04 in 10.0 mi Calm Calm - N/A   Clear
5:53 AM 36.0 °F 33.3 °F 30.0 °F 79% 30.03 in 10.0 mi SW 3.5 mph - N/A   Clear
6:53 AM 37.9 °F 35.5 °F 32.0 °F 79% 30.03 in 10.0 mi SW 3.5 mph - N/A   Clear
7:53 AM 43.0 °F 41.3 °F 35.1 °F 74% 30.03 in 10.0 mi SW 3.5 mph - N/A   Clear
8:53 AM 46.9 °F - 37.0 °F 68% 30.03 in 10.0 mi SW 8.1 mph - N/A   Clear
9:53 AM 52.0 °F - 39.9 °F 63% 30.01 in 10.0 mi WSW 9.2 mph - N/A   Clear
10:53 AM 59.0 °F - 42.1 °F 53% 30.00 in 10.0 mi WSW 9.2 mph - N/A   Clear
11:53 AM 64.9 °F - 43.0 °F 45% 29.97 in 10.0 mi WSW 11.5 mph - N/A   Clear
12:53 PM 68.0 °F - 45.0 °F 43% 29.96 in 10.0 mi Variable 4.6 mph - N/A   Clear
1:53 PM 70.0 °F - 45.0 °F 41% 29.93 in 10.0 mi SSW 6.9 mph - N/A   Clear
2:53 PM 70.0 °F - 46.0 °F 42% 29.89 in 10.0 mi SW 10.4 mph - N/A   Clear
3:53 PM 73.0 °F - 46.9 °F 39% 29.86 in 10.0 mi SW 11.5 mph - N/A   Clear
4:53 PM 72.0 °F - 48.0 °F 43% 29.84 in 10.0 mi SSW 6.9 mph - N/A   Clear
5:53 PM 71.1 °F - 48.0 °F 44% 29.82 in 10.0 mi SW 9.2 mph - N/A   Clear
6:53 PM 69.1 °F - 48.9 °F 49% 29.81 in 10.0 mi South 3.5 mph - N/A   Clear
7:53 PM 70.0 °F - 48.9 °F 47% 29.80 in 10.0 mi SSW 13.8 mph 21.9 mph N/A   Clear
8:53 PM 69.1 °F - 48.9 °F 49% 29.78 in 10.0 mi SSW 17.3 mph 24.2 mph N/A   Clear
9:53 PM 69.1 °F - 48.0 °F 47% 29.78 in 10.0 mi SW 16.1 mph 29.9 mph N/A   Clear
10:53 PM 66.9 °F - 48.0 °F 51% 29.78 in 10.0 mi SW 15.0 mph 27.6 mph N/A   Clear
11:53 PM 66.9 °F - 48.0 °F 51% 29.77 in 10.0 mi SW 16.1 mph 25.3 mph N/A   Clear